Tracking 35274 objects as of 10-Sep-2026
HD Live streaming from Space Station
objects crossing your sky now

STARLINK-30546


STARLINK-30546 is no longer on orbit
STARLINK-30546 is classified as:


NORAD ID: 58003
Int'l Code: 2023-153N
Launch date: October 5, 2023
Source: United States (US)
Launch site: AIR FORCE EASTERN TEST RANGE (AFETR)
Decay date: 2026-04-18
Your satellite tracking list
Your tracking list is empty




NASA's NSSDC Master Catalog

Two Line Element Set (TLE):
1 58003U 23153N   26108.40805294  .06106695  89677-5  27109-2 0  9995
2 58003  42.9980 191.9233 0009384 290.7120  69.2760 16.21226414141097
Source of the keplerian elements: AFSPC